Flight Track Log - Related Links

Times and Time Zones

All times are in EDT time to prevent confusion due to time zone crossing. See the UAL4476 flight status page for this flight to view local times or setup timezone preferences in your user account.

Time Position Orientation Groundspeed Altitude Reporting Facility
EDT Latitude Longitude Course Direction KTS MPH feet Rate Location/Type
Sat 08:36:57 AM 41.3919 -81.8811 286° West 161 185 1,800  Level Cleveland Center
Sat 08:38:35 AM 41.4097 -81.9647 286° West 170 196 5,400 2,203 Climbing Cleveland Center
Sat 08:39:35 AM 41.4686 -81.9217 29° Northeast 200 230 7,600 2,050 Climbing Cleveland Center
Sat 08:40:35 AM 41.5300 -81.8397 45° Northeast 246 283 9,500 1,650 Climbing Cleveland Center
Sat 08:41:35 AM 41.5956 -81.7547 44° Northeast 300 345 10,900 1,200 Climbing Cleveland Center
Sat 08:42:35 AM 41.6631 -81.6561 47° Northeast 338 389 11,900 1,000 Climbing Cleveland Center
Sat 08:43:35 AM 41.7039 -81.5175 68° East 405 466 12,900 1,400 Climbing Cleveland Center
Sat 08:44:35 AM 41.7322 -81.3706 75° East 398 458 14,700 1,750 Climbing Cleveland Center
Sat 08:45:35 AM 41.7581 -81.2206 77° East 398 458 16,400 1,350 Climbing Cleveland Center
Sat 08:46:35 AM 41.7817 -81.0900 76° East 398 458 17,400 1,000 Climbing Cleveland Center
Sat 08:47:35 AM 41.8094 -80.9369 76° East 413 475 18,400 1,050 Climbing Cleveland Center
Sat 08:48:35 AM 41.8389 -80.7756 76° East 426 490 19,500 1,300 Climbing Cleveland Center
Sat 08:49:35 AM 41.8683 -80.6139 76° East 436 502 21,000 1,750 Climbing Cleveland Center
Sat 08:50:35 AM 41.8975 -80.4547 76° East 441 507 23,000 1,750 Climbing Cleveland Center
Sat 08:51:35 AM 41.9242 -80.2817 78° East 436 502 24,500 1,250 Climbing Cleveland Center
Sat 08:52:35 AM 41.9528 -80.1197 77° East 430 495 25,500 1,050 Climbing Cleveland Center
Sat 08:53:35 AM 41.9833 -79.9547 76° East 439 505 26,600 1,050 Climbing Cleveland Center
Sat 08:54:35 AM 42.0114 -79.7867 77° East 452 520 27,600 1,050 Climbing Cleveland Center
Sat 08:55:35 AM 42.0414 -79.6158 77° East 452 520 28,700 1,050 Climbing Cleveland Center
Sat 08:56:35 AM 42.0544 -79.4422 84° East 458 527 29,700 1,050 Climbing Cleveland Center
Sat 08:57:35 AM 42.0628 -79.2631 86° East 468 539 30,800 1,050 Climbing Cleveland Center
Sat 08:58:35 AM 42.0711 -79.0867 86° East 468 539 31,800 1,050 Climbing Cleveland Center
Sat 08:59:35 AM 42.1000 -78.9097 78° East 473 544 32,900 600 Climbing Cleveland Center
Sat 09:00:35 AM 42.1347 -78.7322 75° East 478 550 33,000 50 Climbing Cleveland Center
Sat 09:01:35 AM 42.1711 -78.5381 76° East 498 573 33,000  Level Cleveland Center
Sat 09:02:35 AM 42.2072 -78.3433 76° East 519 597 33,000  Level Cleveland Center
Sat 09:03:35 AM 42.2428 -78.1458 76° East 524 603 33,000  Level Cleveland Center
Sat 09:04:35 AM 42.2800 -77.9508 75° East 531 611 33,000  Level Cleveland Center
Sat 09:06:46 AM 42.3556 -77.5181 77° East 540 621 33,000  Level Boston Center
Sat 09:07:48 AM 42.3864 -77.3406 77° East 545 627 33,000  Level Boston Center
Sat 09:08:47 AM 42.4217 -77.1436 76° East 540 621 33,000  Level Boston Center
Sat 09:09:46 AM 42.4489 -76.9400 80° East 540 621 33,000  Level Boston Center
Sat 09:10:47 AM 42.4714 -76.7361 81° East 540 621 33,000  Level Boston Center
Sat 09:11:48 AM 42.4933 -76.5347 82° East 545 627 33,000  Level Boston Center
Sat 09:12:46 AM 42.5108 -76.3331 83° East 545 627 33,000  Level Boston Center
Sat 09:13:48 AM 42.5197 -76.1308 87° East 540 621 33,000  Level Boston Center
Sat 09:14:46 AM 42.5239 -75.9281 88° East 535 616 33,000  Level Boston Center
Sat 09:15:46 AM 42.5258 -75.7253 89° East 535 616 33,000  Level Boston Center
Sat 09:16:47 AM 42.5300 -75.5000 88° East 540 621 33,000  Level Boston Center
Sat 09:17:47 AM 42.5331 -75.3028 89° East 540 621 33,000 -50 Level Boston Center
Sat 09:18:46 AM 42.5358 -75.1028 89° East 530 610 32,900  Descending Boston Center
Sat 09:19:47 AM 42.5403 -74.9058 88° East 530 610 33,000 49 Climbing Boston Center
Sat 09:20:48 AM 42.5447 -74.7003 88° East 530 610 33,000  Level Boston Center
Sat 09:21:46 AM 42.5464 -74.5031 89° East 530 610 33,000  Level Boston Center
Sat 09:22:47 AM 42.5497 -74.3003 89° East 530 610 33,000  Level Boston Center
Sat 09:23:47 AM 42.5508 -74.1000 90° East 530 610 33,000  Level Boston Center
Sat 09:24:48 AM 42.5517 -73.8972 90° East 535 616 33,000  Level Boston Center
Sat 09:25:48 AM 42.5539 -73.6972 89° East 535 616 33,000  Level Boston Center
Sat 09:26:48 AM 42.5539 -73.4914 90° East 535 616 33,000  Level Boston Center
Sat 09:27:48 AM 42.5556 -73.2997 89° East 535 616 33,000 -407 Level Boston Center
Sat 09:28:46 AM 42.5547 -73.1053 90° East 536 617 32,200 -1,160 Descending Boston Center
Sat 09:29:47 AM 42.5536 -72.9050 90° East 531 611 30,700 -1,488 Descending Boston Center
Sat 09:30:47 AM 42.5522 -72.7472 91° East 526 605 29,200 -2,380 Descending Boston Center
Sat 09:31:48 AM 42.5483 -72.5217 91° East 509 586 25,900 -2,777 Descending Boston Center
Sat 09:32:48 AM 42.5483 -72.3669 90° East 504 580 23,600 -2,773 Descending Boston Center
Sat 09:33:47 AM 42.5481 -72.1497 90° East 495 570 20,400 -3,580 Descending Boston Center
Sat 09:34:47 AM 42.5369 -71.9556 94° East 476 548 16,500 -3,917 Descending Boston Center
Sat 09:35:48 AM 42.5217 -71.8092 98° East 450 518 12,500 -2,824 Descending Boston Center
Sat 09:36:46 AM 42.5081 -71.6431 96° East 415 478 10,900 -1,174 Descending Boston Center
Sat 09:37:20 AM 42.5000 -71.5667 98° East 344 396 10,700 -894 Descending KA90
Sat 09:38:20 AM 42.4833 -71.4500 101° East 329 379 9,500 -850 Descending KA90
Sat 09:39:20 AM 42.4833 -71.3333 90° East 318 366 9,000 -250 Descending KA90
Sat 09:40:20 AM 42.4667 -71.2000 100° East 317 365 9,000 -650 Level KA90
Sat 09:41:20 AM 42.4500 -71.1000 103° East 304 350 7,700 -1,150 Descending KA90
Sat 09:42:20 AM 42.4333 -71.0167 105° East 241 277 6,700 -857 Descending KA90
Sat 09:43:26 AM 42.3667 -70.9667 151° Southeast 242 278 5,900 -524 Descending KA90
Sat 09:44:26 AM 42.3000 -70.9333 160° South 231 266 5,600 -1,000 Descending KA90
Sat 09:45:26 AM 42.2333 -70.9667 200° South 238 274 3,900 -1,368 Descending KA90
Sat 09:46:20 AM 42.1833 -70.9833 194° South 236 272 3,000 -474 Descending KA90
Sat 09:47:20 AM 42.1333 -71.0333 217° Southwest 222 255 3,000  Level KA90
Sat 09:48:20 AM 42.1500 -71.0833 294° West 178 205 3,000  Level KA90
Sat 09:49:20 AM 42.2000 -71.0833 360° North 183 211 3,000 -300 Level KA90
Sat 09:50:20 AM 42.2500 -71.0667 14° North 163 188 2,400 -700 Descending KA90
Sat 09:51:20 AM 42.2833 -71.0500 20° North 135 155 1,600 -800 Descending KA90
Sat 09:52:20 AM 42.3167 -71.0333 20° North 131 151 800 -800 Descending KA90

Login

Don't have an account? Register now (free) for customized features, flight alerts, and more!